QPF
0.02 0.02 0.02 0.02 0.02 0.02 0.03 0.02 0.02 0.03 0.03 0.03 0.02 0.02 0.01 0.01 0.02 0.01 0.01 0.02 0.02 0.01 0.02 0.02 0.02 0.03 0.04 0.05 0.06 0.08 0.10 0.13 0.13 0.11 0.11 0.13 0.16 0.17
0.02 0.02 0.01 0.01 0.02 0.02 0.03 0.03 0.02 0.03 0.03 0.02 0.02 0.02 0.02 0.01 0.02 0.01 0.01 0.02 0.02 0.02 0.02 0.03 0.02 0.02 0.03 0.03 0.04 0.05 0.06 0.07 0.08 0.09 0.09 0.08 0.10 0.13
0.01 0.01 0.01 0.01 0.01 0.02 0.02 0.03 0.03 0.03 0.02 0.02 0.03 0.02 0.02 0.01 0.01 0.01 0.01 0.01 0.01 0.02 0.02 0.02 0.02 0.02 0.02 0.02 0.02 0.03 0.04 0.06 0.08 0.09 0.09 0.09 0.09 0.10
0.02 0.02 0.01 0.01 0.01 0.01 0.01 0.01 0.02 0.02 0.02 0.02 0.03 0.02 0.01 0.01 0.01 0.01 0.01 0.01 0.01 0.01 0.01 0.01 0.01 0.01 0.01 0.02 0.03 0.03 0.03 0.04 0.05 0.05 0.07 0.08 0.09 0.09
0.03 0.04 0.04 0.03 0.02 0.01 0.01 0.01 0.01 0.02 0.02 0.02 0.03 0.02 0.02 0.01 0.02 0.02 0.01 0.01 0.01 0.01 0.00 0.00 0.00 0.01 0.01 0.02 0.03 0.04 0.03 0.03 0.02 0.03 0.03 0.04 0.05 0.07
0.02 0.02 0.03 0.03 0.03 0.03 0.03 0.02 0.01 0.02 0.03 0.03 0.03 0.02 0.02 0.02 0.01 0.02 0.02 0.01 0.00 0.00 0.00 0.00 0.00 0.01 0.01 0.02 0.02 0.03 0.04 0.04 0.03 0.03 0.03 0.03 0.02 0.02
0.01 0.01 0.01 0.01 0.02 0.02 0.02 0.02 0.02 0.02 0.02 0.03 0.03 0.02 0.03 0.02 0.02 0.01 0.03 0.02 0.01 0.00 0.00 0.01 0.01 0.01 0.01 0.01 0.02 0.02 0.02 0.03 0.04 0.04 0.03 0.03 0.02 0.01
0.01 0.01 0.01 0.01 0.01 0.01 0.01 0.01 0.01 0.01 0.01 0.02 0.02 0.02 0.02 0.02 0.01 0.01 0.02 0.02 0.01 0.01 0.01 0.01 0.01 0.01 0.01 0.01 0.02 0.02 0.02 0.02 0.02 0.02 0.02 0.02 0.02 0.01
0.00 0.00 0.00 0.01 0.01 0.01 0.01 0.01 0.00 0.01 0.01 0.01 0.02 0.02 0.03 0.02 0.01 0.01 0.01 0.01 0.01 0.01 0.01 0.01 0.01 0.01 0.01 0.02 0.02 0.02 0.01 0.01 0.01 0.01 0.02 0.02 0.02 0.01
0.00 0.00 0.00 0.01 0.01 0.01 0.01 0.01 0.00 0.01 0.01 0.02 0.02 0.03 0.04 0.03 0.01 0.01 0.01 0.01 0.01 0.01 0.01 0.01 0.01 0.01 0.01 0.01 0.01 0.01 0.01 0.01 0.01 0.01 0.01 0.01 0.01 0.02
0.01 0.01 0.01 0.01 0.01 0.01 0.01 0.01 0.01 0.01 0.01 0.02 0.03 0.04 0.04 0.04 0.02 0.01 0.02 0.01 0.02 0.03 0.03 0.02 0.02 0.02 0.01 0.01 0.01 0.01 0.01 0.01 0.01 0.01 0.00 0.01 0.01 0.02
0.01 0.02 0.03 0.03 0.03 0.03 0.02 0.02 0.01 0.02 0.01 0.01 0.01 0.02 0.02 0.03 0.02 0.02 0.01 0.01 0.02 0.04 0.04 0.02 0.01 0.01 0.01 0.00 0.00 0.00 0.00 0.00 0.00 0.00 0.00 0.01 0.01 0.01
0.02 0.02 0.03 0.03 0.03 0.02 0.02 0.02 0.02 0.02 0.01 0.01 0.01 0.01 0.01 0.02 0.03 0.02 0.02 0.01 0.01 0.02 0.02 0.01 0.01 0.00 0.00 0.00 0.00 0.00 0.00 0.00 0.00 0.00 0.00 0.00 0.00 0.00
0.02 0.01 0.02 0.02 0.02 0.02 0.02 0.03 0.02 0.01 0.01 0.01 0.01 0.01 0.01 0.02 0.02 0.02 0.02 0.02 0.02 0.02 0.01 0.00 0.00 0.00 0.00 0.00 0.00 0.00 0.00 0.00 0.00 0.00 0.00 0.00 0.00 0.00
0.01 0.02 0.01 0.01 0.01 0.02 0.02 0.02 0.01 0.01 0.01 0.01 0.02 0.01 0.02 0.01 0.01 0.01 0.02 0.02 0.01 0.02 0.01 0.01 0.00 0.00 0.00 0.00 0.00 0.00 0.00 0.00 0.00 0.00 0.01 0.00 0.00 0.00
0.01 0.01 0.01 0.00 0.01 0.01 0.01 0.01 0.01 0.01 0.01 0.02 0.02 0.01 0.02 0.01 0.01 0.01 0.01 0.01 0.01 0.00 0.00 0.00 0.00 0.00 0.00 0.00 0.00 0.00 0.00 0.00 0.00 0.00 0.01 0.02 0.01 0.01
0.00 0.00 0.00 0.00 0.00 0.01 0.01 0.01 0.02 0.02 0.02 0.02 0.01 0.01 0.01 0.01 0.00 0.00 0.00 0.00 0.00 0.00 0.00 0.00 0.00 0.00 0.00 0.00 0.00 0.00 0.00 0.00 0.00 0.00 0.00 0.00 0.01 0.01
0.00 0.00 0.00 0.00 0.00 0.01 0.01 0.01 0.02 0.02 0.02 0.02 0.01 0.01 0.01 0.01 0.00 0.00 0.00 0.00 0.00 0.00 0.00 0.00 0.00 0.00 0.00 0.00 0.00 0.00 0.00 0.00 0.00 0.00 0.00 0.00 0.01 0.01
0.00 0.00 0.00 0.00 0.00 0.00 0.00 0.01 0.01 0.01 0.01 0.02 0.02 0.01 0.01 0.01 0.00 0.00 0.00 0.00 0.00 0.00 0.00 0.00 0.00 0.00 0.00 0.00 0.00 0.00 0.00 0.00 0.00 0.00 0.00 0.01 0.01 0.00
0.00 0.00 0.00 0.00 0.00 0.00 0.00 0.01 0.01 0.01 0.01 0.01 0.01 0.01 0.01 0.01 0.01 0.00 0.00 0.00 0.00 0.01 0.00 0.00 0.00 0.00 0.00 0.00 0.00 0.00 0.00 0.00 0.00 0.00 0.00 0.00 0.00 0.00
0.00 0.00 0.00 0.00 0.00 0.00 0.00 0.01 0.00 0.00 0.01 0.01 0.01 0.01 0.01 0.01 0.01 0.00 0.00 0.01 0.01 0.01 0.00 0.00 0.00 0.00 0.00 0.00 0.00 0.00 0.00 0.00 0.00 0.01 0.01 0.01 0.01 0.00
0.00 0.00 0.00 0.00 0.00 0.00 0.01 0.00 0.00 0.00 0.01 0.01 0.01 0.01 0.01 0.01 0.01 0.01 0.01 0.01 0.01 0.00 0.00 0.00 0.00 0.00 0.00 0.00 0.00 0.00 0.00 0.00 0.00 0.00 0.00 0.01 0.00 0.00
0.00 0.00 0.00 0.00 0.00 0.01 0.01 0.01 0.01 0.01 0.01 0.01 0.01 0.01 0.01 0.02 0.01 0.02 0.01 0.01 0.01 0.01 0.01 0.00 0.00 0.00 0.00 0.00 0.00 0.00 0.00 0.00 0.00 0.01 0.00 0.00 0.00 0.00
MSLP
1017.60 1017.30 1017.06 1016.88 1016.78 1016.76 1016.84 1017.01 1017.27 1017.60 1017.98 1018.38 1018.74 1019.02 1019.19 1019.21 1019.08 1018.81 1018.45 1018.05 1017.66 1017.35 1017.17 1017.15 1017.31 1017.64 1018.11 1018.69 1019.33 1020.00 1020.67 1021.30 1021.89 1022.42 1022.89 1023.30 1023.66 1023.96
1017.18 1016.85 1016.58 1016.38 1016.26 1016.24 1016.33 1016.53 1016.84 1017.24 1017.71 1018.21 1018.68 1019.07 1019.34 1019.46 1019.43 1019.25 1018.98 1018.66 1018.34 1018.11 1017.99 1018.03 1018.23 1018.59 1019.07 1019.65 1020.27 1020.89 1021.49 1022.03 1022.52 1022.93 1023.29 1023.59 1023.85 1024.06
1016.73 1016.38 1016.09 1015.87 1015.73 1015.71 1015.80 1016.02 1016.37 1016.84 1017.39 1017.97 1018.55 1019.06 1019.46 1019.71 1019.81 1019.76 1019.60 1019.38 1019.17 1019.01 1018.96 1019.05 1019.27 1019.63 1020.10 1020.63 1021.19 1021.74 1022.24 1022.68 1023.05 1023.36 1023.60 1023.80 1023.96 1024.10
1016.28 1015.94 1015.65 1015.42 1015.28 1015.24 1015.33 1015.56 1015.93 1016.44 1017.05 1017.71 1018.39 1019.01 1019.53 1019.92 1020.15 1020.25 1020.22 1020.13 1020.01 1019.94 1019.94 1020.05 1020.28 1020.62 1021.03 1021.50 1021.97 1022.42 1022.82 1023.15 1023.41 1023.61 1023.77 1023.88 1023.97 1024.05
1015.86 1015.55 1015.28 1015.06 1014.92 1014.88 1014.97 1015.19 1015.57 1016.09 1016.73 1017.45 1018.19 1018.90 1019.53 1020.04 1020.41 1020.63 1020.74 1020.76 1020.75 1020.74 1020.79 1020.91 1021.11 1021.40 1021.74 1022.11 1022.48 1022.82 1023.12 1023.35 1023.53 1023.65 1023.73 1023.79 1023.84 1023.87
1015.48 1015.23 1015.00 1014.81 1014.68 1014.65 1014.72 1014.94 1015.30 1015.81 1016.45 1017.18 1017.96 1018.73 1019.43 1020.04 1020.52 1020.86 1021.08 1021.21 1021.28 1021.33 1021.40 1021.50 1021.67 1021.88 1022.13 1022.41 1022.67 1022.91 1023.11 1023.26 1023.37 1023.44 1023.49 1023.52 1023.54 1023.55
1015.17 1014.97 1014.80 1014.65 1014.56 1014.53 1014.61 1014.81 1015.14 1015.62 1016.24 1016.95 1017.72 1018.51 1019.25 1019.92 1020.47 1020.90 1021.21 1021.42 1021.55 1021.64 1021.71 1021.80 1021.91 1022.05 1022.21 1022.37 1022.54 1022.68 1022.80 1022.89 1022.96 1023.00 1023.03 1023.05 1023.06 1023.07
1014.93 1014.80 1014.69 1014.60 1014.54 1014.54 1014.61 1014.80 1015.10 1015.54 1016.10 1016.77 1017.51 1018.27 1019.02 1019.70 1020.30 1020.78 1021.15 1021.41 1021.58 1021.69 1021.77 1021.83 1021.88 1021.94 1022.01 1022.09 1022.16 1022.22 1022.27 1022.32 1022.35 1022.38 1022.41 1022.42 1022.43 1022.43
1014.80 1014.73 1014.68 1014.64 1014.63 1014.66 1014.74 1014.91 1015.19 1015.58 1016.08 1016.68 1017.36 1018.08 1018.79 1019.46 1020.06 1020.56 1020.96 1021.25 1021.44 1021.56 1021.63 1021.65 1021.66 1021.65 1021.65 1021.64 1021.63 1021.63 1021.63 1021.63 1021.64 1021.66 1021.67 1021.69 1021.69 1021.66
1014.82 1014.79 1014.79 1014.81 1014.84 1014.90 1015.00 1015.17 1015.42 1015.76 1016.20 1016.73 1017.33 1017.98 1018.63 1019.25 1019.82 1020.32 1020.71 1021.01 1021.21 1021.33 1021.38 1021.38 1021.35 1021.29 1021.23 1021.15 1021.08 1021.02 1020.97 1020.94 1020.92 1020.91 1020.90 1020.89 1020.87 1020.82
1015.03 1015.03 1015.06 1015.11 1015.18 1015.27 1015.39 1015.56 1015.79 1016.09 1016.47 1016.93 1017.45 1018.01 1018.59 1019.15 1019.66 1020.12 1020.49 1020.77 1020.97 1021.08 1021.13 1021.11 1021.05 1020.96 1020.85 1020.73 1020.60 1020.49 1020.40 1020.31 1020.25 1020.20 1020.16 1020.11 1020.05 1019.95
1015.44 1015.44 1015.48 1015.55 1015.65 1015.76 1015.90 1016.07 1016.28 1016.55 1016.88 1017.26 1017.70 1018.18 1018.67 1019.15 1019.60 1020.00 1020.33 1020.59 1020.77 1020.87 1020.90 1020.88 1020.80 1020.69 1020.55 1020.39 1020.23 1020.07 1019.93 1019.79 1019.67 1019.57 1019.47 1019.37 1019.25 1019.12
1016.02 1016.00 1016.04 1016.11 1016.21 1016.33 1016.48 1016.64 1016.85 1017.09 1017.37 1017.69 1018.06 1018.45 1018.85 1019.25 1019.62 1019.96 1020.24 1020.46 1020.61 1020.70 1020.72 1020.69 1020.61 1020.49 1020.33 1020.15 1019.95 1019.76 1019.56 1019.37 1019.19 1019.02 1018.85 1018.69 1018.52 1018.34
1016.70 1016.65 1016.66 1016.71 1016.80 1016.92 1017.06 1017.22 1017.41 1017.63 1017.87 1018.14 1018.44 1018.76 1019.08 1019.39 1019.68 1019.95 1020.17 1020.34 1020.46 1020.53 1020.55 1020.51 1020.43 1020.30 1020.14 1019.95 1019.73 1019.49 1019.25 1019.00 1018.76 1018.52 1018.30 1018.08 1017.86 1017.65
1017.39 1017.30 1017.27 1017.29 1017.35 1017.45 1017.57 1017.72 1017.89 1018.09 1018.30 1018.53 1018.77 1019.02 1019.27 1019.50 1019.72 1019.91 1020.07 1020.20 1020.28 1020.33 1020.33 1020.29 1020.21 1020.09 1019.93 1019.73 1019.49 1019.23 1018.94 1018.65 1018.35 1018.05 1017.77 1017.51 1017.27 1017.05
1017.98 1017.84 1017.77 1017.74 1017.77 1017.84 1017.94 1018.07 1018.22 1018.39 1018.58 1018.77 1018.97 1019.17 1019.36 1019.53 1019.68 1019.81 1019.91 1019.98 1020.03 1020.05 1020.04 1020.00 1019.92 1019.81 1019.65 1019.44 1019.20 1018.91 1018.60 1018.26 1017.92 1017.59 1017.27 1016.98 1016.73 1016.51
1018.37 1018.20 1018.08 1018.02 1018.00 1018.03 1018.10 1018.21 1018.34 1018.50 1018.66 1018.84 1019.01 1019.17 1019.31 1019.43 1019.53 1019.60 1019.65 1019.69 1019.70 1019.69 1019.67 1019.62 1019.54 1019.43 1019.27 1019.07 1018.82 1018.52 1018.19 1017.83 1017.46 1017.10 1016.77 1016.47 1016.22 1016.03
1018.53 1018.33 1018.18 1018.08 1018.02 1018.02 1018.06 1018.14 1018.26 1018.40 1018.56 1018.72 1018.88 1019.01 1019.13 1019.22 1019.28 1019.31 1019.32 1019.32 1019.30 1019.27 1019.23 1019.17 1019.09 1018.98 1018.82 1018.62 1018.37 1018.07 1017.73 1017.36 1016.97 1016.60 1016.26 1015.96 1015.73 1015.56
1018.47 1018.26 1018.08 1017.95 1017.87 1017.84 1017.85 1017.92 1018.02 1018.15 1018.31 1018.46 1018.61 1018.75 1018.85 1018.92 1018.96 1018.96 1018.95 1018.91 1018.87 1018.81 1018.76 1018.69 1018.60 1018.49 1018.34 1018.14 1017.89 1017.58 1017.24 1016.86 1016.47 1016.10 1015.75 1015.46 1015.24 1015.10
1018.23 1018.03 1017.85 1017.70 1017.60 1017.54 1017.54 1017.59 1017.68 1017.81 1017.97 1018.13 1018.28 1018.41 1018.51 1018.57 1018.60 1018.59 1018.56 1018.50 1018.44 1018.37 1018.29 1018.21 1018.12 1018.00 1017.85 1017.65 1017.40 1017.09 1016.75 1016.37 1015.98 1015.60 1015.25 1014.97 1014.75 1014.62
1017.90 1017.71 1017.54 1017.39 1017.28 1017.21 1017.19 1017.23 1017.32 1017.44 1017.59 1017.76 1017.91 1018.05 1018.15 1018.21 1018.23 1018.22 1018.17 1018.10 1018.03 1017.94 1017.86 1017.77 1017.66 1017.53 1017.37 1017.17 1016.92 1016.61 1016.26 1015.88 1015.49 1015.11 1014.76 1014.47 1014.25 1014.11
1017.54 1017.37 1017.21 1017.06 1016.94 1016.87 1016.85 1016.87 1016.95 1017.07 1017.21 1017.37 1017.53 1017.67 1017.77 1017.83 1017.85 1017.83 1017.78 1017.70 1017.61 1017.52 1017.42 1017.32 1017.21 1017.08 1016.91 1016.70 1016.44 1016.13 1015.78 1015.40 1015.00 1014.61 1014.25 1013.95 1013.71 1013.55
1017.17 1017.02 1016.87 1016.73 1016.62 1016.53 1016.50 1016.51 1016.58 1016.68 1016.82 1016.97 1017.12 1017.24 1017.34 1017.40 1017.41 1017.39 1017.33 1017.25 1017.16 1017.06 1016.96 1016.85 1016.73 1016.59 1016.41 1016.20 1015.94 1015.63 1015.27 1014.88 1014.48 1014.08 1013.71 1013.38 1013.13 1012.94
Thickness
5580 5580 5580 5580 5580 5581 5582 5582 5583 5585 5587 5588 5589 5591 5593 5596 5598 5601 5604 5608 5611 5614 5617 5620 5622 5624 5626 5628 5630 5631 5632 5632 5632 5632 5631 5629 5628 5628
5574 5574 5574 5575 5575 5575 5576 5577 5578 5579 5580 5581 5581 5583 5585 5588 5590 5593 5596 5599 5602 5606 5609 5611 5613 5616 5618 5620 5621 5622 5622 5622 5623 5623 5622 5621 5620 5619
5569 5569 5569 5570 5570 5570 5571 5571 5572 5572 5573 5573 5574 5576 5578 5580 5583 5586 5588 5591 5594 5597 5600 5602 5604 5607 5608 5610 5612 5612 5612 5613 5613 5613 5612 5612 5610 5610
5563 5563 5564 5565 5565 5565 5565 5566 5566 5566 5567 5568 5569 5570 5571 5573 5576 5578 5581 5584 5586 5589 5591 5594 5596 5598 5599 5601 5602 5602 5603 5603 5603 5603 5603 5602 5600 5599
5557 5557 5558 5559 5559 5559 5559 5560 5561 5561 5561 5562 5563 5563 5565 5567 5569 5572 5574 5576 5579 5582 5584 5586 5588 5589 5591 5592 5593 5594 5594 5594 5594 5594 5593 5592 5591 5590
5552 5553 5553 5554 5554 5554 5554 5555 5556 5556 5556 5557 5558 5558 5559 5561 5562 5565 5567 5569 5572 5574 5576 5578 5580 5582 5584 5585 5586 5586 5586 5586 5586 5586 5585 5584 5584 5583
5548 5548 5549 5550 5550 5550 5551 5551 5551 5551 5551 5552 5553 5554 5554 5555 5557 5558 5560 5563 5565 5566 5569 5571 5573 5575 5577 5578 5578 5578 5579 5578 5578 5578 5578 5577 5577 5576
5543 5544 5545 5546 5546 5547 5547 5547 5548 5548 5548 5548 5549 5550 5550 5551 5552 5553 5554 5557 5560 5560 5562 5565 5566 5569 5571 5572 5572 5573 5573 5572 5572 5572 5572 5571 5571 5570
5538 5539 5541 5541 5541 5542 5543 5544 5544 5545 5545 5545 5546 5547 5547 5548 5549 5549 5550 5552 5554 5556 5556 5560 5561 5563 5566 5567 5567 5568 5568 5568 5567 5567 5567 5566 5566 5565
5535 5535 5536 5537 5537 5538 5539 5540 5541 5542 5542 5543 5544 5545 5545 5546 5546 5547 5548 5548 5550 5551 5552 5555 5558 5559 5562 5562 5563 5563 5563 5563 5563 5563 5562 5562 5561 5560
5532 5532 5533 5533 5534 5534 5535 5536 5538 5539 5540 5541 5542 5542 5543 5544 5544 5544 5545 5547 5549 5550 5549 5552 5555 5555 5557 5559 5559 5559 5559 5559 5559 5559 5558 5558 5556 5555
5531 5531 5531 5531 5532 5532 5533 5533 5535 5536 5537 5539 5540 5541 5542 5542 5543 5543 5544 5545 5546 5548 5548 5548 5551 5551 5554 5556 5556 5556 5556 5556 5556 5556 5555 5554 5553 5551
5530 5530 5530 5530 5531 5532 5532 5532 5533 5534 5535 5536 5538 5539 5540 5541 5542 5542 5543 5544 5545 5547 5547 5546 5547 5548 5549 5552 5553 5554 5553 5553 5553 5553 5552 5551 5550 5547
5530 5530 5530 5531 5531 5532 5532 5533 5533 5533 5534 5535 5537 5538 5539 5541 5541 5542 5542 5543 5544 5545 5546 5545 5546 5546 5547 5549 5551 5552 5552 5551 5551 5551 5550 5549 5548 5546
5531 5531 5531 5532 5532 5533 5534 5534 5534 5534 5535 5535 5537 5538 5539 5540 5541 5541 5542 5543 5543 5544 5545 5544 5545 5545 5545 5547 5548 5549 5549 5550 5549 5548 5547 5546 5545 5544
5533 5533 5533 5533 5533 5534 5534 5535 5535 5535 5535 5536 5537 5539 5539 5540 5541 5541 5542 5543 5543 5545 5545 5545 5545 5544 5545 5545 5545 5546 5546 5546 5547 5546 5544 5544 5543 5541
5535 5535 5536 5536 5536 5536 5536 5537 5537 5537 5537 5538 5538 5539 5541 5541 5542 5542 5541 5542 5543 5544 5546 5546 5545 5544 5544 5543 5544 5545 5545 5545 5544 5543 5542 5542 5542 5540
5537 5538 5538 5538 5537 5538 5538 5539 5540 5540 5540 5540 5541 5541 5542 5542 5543 5542 5542 5542 5543 5544 5545 5545 5544 5544 5544 5544 5542 5544 5544 5544 5543 5540 5538 5538 5540 5539
5541 5541 5541 5541 5541 5541 5541 5541 5542 5542 5542 5542 5542 5543 5543 5543 5543 5544 5544 5543 5544 5544 5544 5543 5542 5542 5544 5546 5547 5541 5541 5542 5540 5538 5537 5535 5536 5537
5546 5546 5546 5545 5545 5545 5545 5544 5545 5545 5545 5544 5544 5544 5544 5544 5545 5545 5544 5544 5544 5544 5544 5543 5542 5541 5541 5542 5543 5542 5539 5537 5537 5536 5536 5533 5532 5531
5552 5551 5550 5550 5549 5549 5548 5548 5547 5547 5547 5546 5546 5546 5546 5546 5546 5546 5545 5543 5542 5543 5544 5544 5543 5540 5538 5536 5537 5539 5539 5536 5533 5532 5531 5530 5529 5529
5557 5556 5555 5554 5553 5553 5552 5551 5551 5550 5550 5549 5549 5548 5548 5547 5547 5547 5546 5545 5544 5543 5543 5543 5541 5538 5536 5536 5537 5537 5537 5535 5532 5528 5525 5524 5522 5524
5561 5560 5559 5558 5557 5556 5555 5554 5553 5552 5551 5551 5550 5549 5549 5548 5548 5547 5546 5545 5544 5543 5542 5541 5539 5537 5535 5534 5533 5533 5532 5531 5529 5527 5526 5523 5519 5517